#timestamp,LO_Frequency,Hit,StdDev 
1456527615.4,286046999.8,N
1456527635.2,286047002.9,N
1456527655.0,286047003.6,N
1456527655.9,286047003.6,N
1456527675.8,286046999.7,N
1456527695.6,286047001.0,N
1456527715.4,286047001.3,N
1456527735.3,286047003.5,N
1456527755.1,286047003.6,N
1456527775.8,286047000.8,N
1456527795.7,286047001.2,N
1456527815.5,286046996.5,N
1456527835.3,286046998.9,N
1456527855.2,286046998.4,N
1456527875.9,286046999.5,N
1456527895.7,286046997.0,N
1456527915.6,286046994.9,N
1456527935.4,286046996.2,N
1456527955.2,286046997.2,N
1456527975.0,286046993.0,N
1456527975.9,286046993.0,N
1456527995.8,286046986.9,Y
1456528015.7,286046986.9,P
1456528035.5,286046989.3,N
1456528055.4,286046987.2,N
1456528075.2,286046985.6,N
1456528095.0,286046979.4,Y
1456528095.9,286046979.4,P
1456528115.8,286046989.2,N
1456528135.6,286046985.3,P
1456528155.4,286046988.1,N
1456528175.3,286046988.3,Y
1456528195.1,286047001.7,P
1456528215.8,286046999.4,N
1456528235.7,286047000.7,N
1456528255.5,286046998.3,N
1456528275.3,286046998.3,N
1456528295.2,286046999.2,N
1456528315.9,286046999.1,N
1456528335.7,286046996.5,N
1456528355.6,286047001.0,N
1456528375.4,286047000.9,N
1456528395.2,286046999.9,N
1456528415.0,286047002.1,N
1456528416.0,286047002.1,N
1456528435.8,286047002.6,N
1456528455.6,286047002.6,N
1456528475.4,286047002.0,N
1456528495.3,286046999.7,N
1456528515.1,286047001.5,N
1456528535.8,286047003.9,N
1456528555.7,286047003.4,N
1456528575.5,286047004.7,N
1456528595.3,286047005.6,N
1456528615.2,286047006.8,N
1456528635.9,286047006.1,N
1456528655.7,286047006.7,N
1456528675.6,286047004.9,N
1456528695.4,286047006.0,N
1456528715.2,286047006.3,N
1456528735.1,286047009.5,N
1456528736.0,286047009.5,N
1456528755.8,286047008.0,N
1456528775.6,286047006.3,N
1456528795.5,286047010.6,Y
1456528815.3,286047005.5,P
1456528835.1,286047003.1,N
1456528855.9,286047006.3,P
1456528875.7,286047005.4,Y
1456528895.5,286046998.2,P
1456528915.4,286046999.0,N
1456528935.2,286046999.9,N
1456528955.0,286047001.8,N
1456528955.9,286047001.8,N
1456528975.8,286047001.4,N
1456528995.6,286047003.7,N
1456529015.4,286047006.4,Y
1456529035.3,286047004.0,P
1456529055.1,286047005.5,P
1456529056.0,286047005.5,P
1456529075.8,286047005.9,Y
1456529095.7,286047001.8,P
1456529115.5,286047004.8,P
1456529135.3,286047004.6,P
1456529155.2,286047005.2,Y
1456529175.9,286046999.4,P
1456529195.7,286046999.1,N
1456529215.6,286046997.3,N
1456529235.4,286046999.6,N
1456529255.2,286046999.3,N
1456529275.0,286046995.7,N
1456529275.9,286046995.7,N
1456529295.8,286046997.6,N
1456529315.6,286046994.9,N
1456529335.4,286046996.1,N
1456529355.3,286046997.3,N
1456529375.1,286046993.9,N
1456529395.8,286046993.6,N
1456529415.7,286046994.2,N
1456529435.5,286046997.6,N
1456529455.3,286046994.9,N
1456529475.2,286047000.6,N
1456529495.9,286046995.0,N
1456529515.7,286046997.0,N
1456529535.6,286046997.0,N
1456529555.4,286046999.9,N
1456529575.2,286047002.8,N
1456529595.0,286046997.9,N
1456529596.0,286046997.9,N
1456529615.8,286046996.8,N
1456529635.6,286046996.6,N
1456529655.4,286046998.1,N
1456529675.3,286047002.6,N
1456529695.1,286047000.8,N
1456529715.8,286046996.7,N
1456529735.7,286046997.0,N
1456529755.5,286046997.7,N
1456529775.3,286046999.3,N
1456529795.2,286046994.9,N
1456529815.9,286046998.2,N
1456529835.7,286046998.3,N
1456529855.6,286046999.1,N
1456529875.4,286046996.5,N
1456529895.2,286046998.4,N
1456529915.0,286047001.0,N
1456529915.9,286047001.0,N
1456529935.8,286046998.9,N
1456529955.6,286046998.9,N
1456529975.4,286046998.6,N
1456529995.3,286046996.5,N
1456530015.1,286046998.9,N
1456530035.8,286046996.6,N
1456530055.7,286046999.6,N
1456530075.5,286047002.5,N
1456530095.3,286047001.8,N
1456530115.2,286047001.7,N
1456530135.9,286047002.6,N
1456530155.7,286046999.8,N
1456530175.6,286046999.4,N
1456530195.4,286047000.6,N
1456530215.2,286047000.4,N
1456530235.0,286047000.1,N
1456530236.0,286047000.1,N
1456530255.8,286047001.1,N
1456530275.6,286047000.9,N
1456530295.4,286047001.7,N
1456530315.3,286047000.6,N
1456530335.1,286047005.8,Y
1456530355.8,286047003.9,P
1456530375.7,286046999.8,N
1456530395.5,286046996.6,N
1456530415.3,286046999.5,N
1456530435.2,286047000.8,N
1456530455.9,286047004.0,N
1456530475.7,286047004.6,N
1456530495.6,286047004.7,N
1456530515.4,286047002.0,N
1456530535.2,286047004.3,N
1456530555.1,286047000.2,N
1456530556.0,286047000.2,N
1456530575.8,286047000.5,N
1456530595.6,286047001.7,N
1456530615.4,286047003.0,N
1456530635.3,286047001.5,N
1456530655.1,286047000.1,N
1456530675.8,286047000.0,N
1456530695.7,286046998.6,N
1456530715.5,286046998.3,N
1456530735.3,286047000.6,N
1456530755.2,286047001.2,N
1456530775.9,286046998.1,N
1456530795.7,286046998.7,N
1456530815.6,286046998.8,N
1456530835.4,286046998.8,N
1456530855.2,286047000.3,N
1456530875.1,286046998.7,N
1456530876.0,286046998.7,N
1456530895.8,286047000.0,N
1456530915.6,286047002.8,N
1456530935.5,286046999.3,N
1456530955.3,286046996.8,N
1456530975.1,286046997.4,N
1456530995.8,286046997.0,N
1456531015.7,286046998.2,N
1456531035.5,286046999.5,N
1456531055.3,286046999.6,N
1456531075.2,286046994.1,Y
1456531095.0,286046993.2,P
1456531095.9,286046993.2,N
1456531115.7,286046990.6,P
1456531135.6,286046991.9,N
1456531155.4,286046992.7,N
1456531175.2,286046994.5,N
1456531195.1,286046989.0,Y
1456531196.0,286046989.0,P
